sat.trackr.live / text

‹ back to catalog

STARLINK-4598

NORAD 53630 · 2022-104AU

PAYLOAD ACTIVE UNKNOWN

§ Identity

Operator
Country
US
Launch date
2022-08-28
Launch site
AFETR
Launch vehicle
Mass (kg)
RCS (m²)

Purposes: comms

External: N2YO · Heavens-Above · Gunter

§ Orbital elements

Epoch: 2026-09-20T22:00:03.000096Z

Period
92.85 min
Inclination
53.1603°
Eccentricity
0.0000558
Mean motion
15.50961938 rev/d
Perigee alt
413.5 km
Apogee alt
414.3 km
Semi-major
6,792.1 km
B*
2.1035e-2
RAAN
55.0259°
Arg perigee
78.0624°
Mean anomaly
127.3406°
Rev number
541

§ Raw data

STARLINK-45981 53630U 22104AU  26263.91670139  .01358602  00000+0  21035-1 0  99972 53630  53.1603  55.0259 0000558  78.0624 127.3406 15.50961938  5418

JSON: /api/v1/satellites/53630 · /tle

For live sub-satellite position, see the globe view (requires WebGL).

§ Visibility from observer

Set your observer location to see the next 7 days of passes ≥ 10°. The values pass through the URL so the page stays shareable.

No JS? Fill the form by hand. The geolocation button needs JavaScript.